• In Deutschland
  • Länderverzeichnis
  • Für 7 Tage
  • Wassertemperatur
  • Satellitenkarten
  • Wetterkarte
  • Widgets
  • user-avatar
    Anmelden

    Stündliche Wetter Witebsk

    Heute, 24 April, Dienstag

    Zeit Temperatur Niederschläge Wind Luftdruck Luftfeuchtigkeit
    00:00 +4°C° 0 mm 2 m/S 744 mmHg 61%
    01:00 +3°C° 0 mm 3 m/S 744 mmHg 62%
    02:00 +2°C° 0 mm 3 m/S 744 mmHg 63%
    03:00 +3°C° 0 mm 3 m/S 744 mmHg 63%
    04:00 +3°C° 0 mm 3 m/S 743 mmHg 63%
    05:00 +3°C° 0 mm 3 m/S 743 mmHg 63%
    06:00 +4°C° 0,1 mm 4 m/S 743 mmHg 65%
    07:00 +5°C° 0,1 mm 4 m/S 742 mmHg 67%
    08:00 +5°C° 0 mm 4 m/S 742 mmHg 69%
    09:00 +6°C° 0 mm 4 m/S 742 mmHg 69%
    10:00 +8°C° 0 mm 3 m/S 742 mmHg 70%
    11:00 +8°C° 0 mm 3 m/S 742 mmHg 71%
    12:00 +9°C° 0 mm 3 m/S 742 mmHg 71%
    13:00 +9°C° 0 mm 3 m/S 741 mmHg 71%
    14:00 +10°C° 0 mm 3 m/S 741 mmHg 71%
    15:00 +11°C° 0,1 mm 3 m/S 741 mmHg 71%
    16:00 +12°C° 0,1 mm 3 m/S 741 mmHg 70%
    17:00 +12°C° 0,1 mm 3 m/S 740 mmHg 70%
    18:00 +11°C° 0,1 mm 3 m/S 740 mmHg 74%
    19:00 +10°C° 0,1 mm 2 m/S 740 mmHg 78%
    20:00 +9°C° 0,1 mm 2 m/S 740 mmHg 83%
    21:00 +9°C° 0 mm 3 m/S 740 mmHg 83%
    22:00 +8°C° 0 mm 3 m/S 740 mmHg 83%
    23:00 +8°C° 0 mm 3 m/S 740 mmHg 83%

    Morgen, 25 April, Mittwoch

    Zeit Temperatur Niederschläge Wind Luftdruck Luftfeuchtigkeit
    00:00 +7°C° 0 mm 3 m/S 740 mmHg 86%
    01:00 +6°C° 0 mm 2 m/S 740 mmHg 89%
    02:00 +5°C° 0 mm 2 m/S 740 mmHg 91%
    03:00 +5°C° 0 mm 3 m/S 740 mmHg 89%
    04:00 +5°C° 0 mm 3 m/S 739 mmHg 87%
    05:00 +6°C° 0 mm 4 m/S 739 mmHg 85%
    06:00 +7°C° 0,1 mm 4 m/S 739 mmHg 83%
    07:00 +8°C° 0,1 mm 5 m/S 739 mmHg 81%
    08:00 +9°C° 0,1 mm 5 m/S 739 mmHg 79%
    09:00 +10°C° 0 mm 5 m/S 739 mmHg 71%
    10:00 +11°C° 0 mm 6 m/S 739 mmHg 63%
    11:00 +13°C° 0 mm 6 m/S 739 mmHg 56%
    12:00 +13°C° 0 mm 6 m/S 739 mmHg 54%
    13:00 +13°C° 0 mm 6 m/S 739 mmHg 53%
    14:00 +13°C° 0 mm 6 m/S 739 mmHg 51%
    15:00 +13°C° 0 mm 5 m/S 738 mmHg 53%
    16:00 +13°C° 0 mm 5 m/S 738 mmHg 54%
    17:00 +12°C° 0 mm 4 m/S 738 mmHg 55%
    18:00 +11°C° 0,1 mm 4 m/S 738 mmHg 63%
    19:00 +10°C° 0,1 mm 3 m/S 737 mmHg 71%
    20:00 +9°C° 0,1 mm 2 m/S 737 mmHg 80%
    21:00 +8°C° 0,9 mm 3 m/S 736 mmHg 84%
    22:00 +8°C° 0,9 mm 3 m/S 736 mmHg 89%
    23:00 +8°C° 0,9 mm 3 m/S 735 mmHg 93%

    übermorgen, 26 April, Donnerstag

    Zeit Temperatur Niederschläge Wind Luftdruck Luftfeuchtigkeit
    00:00 +9°C° 0,1 mm 3 m/S 734 mmHg 93%
    01:00 +8°C° 0,1 mm 4 m/S 734 mmHg 93%
    02:00 +10°C° 0,1 mm 4 m/S 734 mmHg 93%
    03:00 +9°C° 0,1 mm 5 m/S 734 mmHg 92%
    04:00 +8°C° 0,1 mm 5 m/S 734 mmHg 90%
    05:00 +8°C° 0,1 mm 6 m/S 734 mmHg 88%
    06:00 +8°C° 0,1 mm 6 m/S 735 mmHg 86%
    07:00 +8°C° 0,1 mm 6 m/S 735 mmHg 84%
    08:00 +7°C° 0,1 mm 6 m/S 736 mmHg 82%
    09:00 +8°C° 0,1 mm 7 m/S 737 mmHg 75%
    10:00 +10°C° 0,1 mm 7 m/S 738 mmHg 67%
    11:00 +11°C° 0,1 mm 7 m/S 738 mmHg 60%
    12:00 +11°C° 0,1 mm 7 m/S 739 mmHg 57%
    13:00 +12°C° 0,1 mm 7 m/S 739 mmHg 53%
    14:00 +12°C° 0,1 mm 7 m/S 739 mmHg 50%
    15:00 +13°C° 0,1 mm 6 m/S 739 mmHg 52%
    16:00 +13°C° 0,1 mm 6 m/S 739 mmHg 54%
    17:00 +11°C° 0,1 mm 6 m/S 740 mmHg 56%
    18:00 +10°C° 0,1 mm 5 m/S 740 mmHg 63%
    19:00 +9°C° 0,1 mm 5 m/S 741 mmHg 70%
    20:00 +7°C° 0,1 mm 4 m/S 741 mmHg 78%
    21:00 +7°C° 0 mm 4 m/S 741 mmHg 79%
    22:00 +6°C° 0 mm 4 m/S 742 mmHg 81%
    23:00 +5°C° 0 mm 4 m/S 742 mmHg 83%

    27 April, Freitag

    Zeit Temperatur Niederschläge Wind Luftdruck Luftfeuchtigkeit
    00:00 +5°C° 0 mm 4 m/S 742 mmHg 86%
    01:00 +4°C° 0 mm 3 m/S 742 mmHg 88%
    02:00 +4°C° 0 mm 3 m/S 743 mmHg 90%
    03:00 +3°C° 0 mm 3 m/S 743 mmHg 91%
    04:00 +3°C° 0 mm 3 m/S 743 mmHg 93%
    05:00 +2°C° 0 mm 3 m/S 743 mmHg 94%
    06:00 +4°C° 0 mm 3 m/S 744 mmHg 87%
    07:00 +5°C° 0 mm 3 m/S 744 mmHg 79%
    08:00 +7°C° 0 mm 4 m/S 744 mmHg 72%
    09:00 +8°C° 0 mm 4 m/S 744 mmHg 66%
    10:00 +11°C° 0 mm 4 m/S 744 mmHg 59%
    11:00 +12°C° 0 mm 5 m/S 745 mmHg 53%
    12:00 +13°C° 0,1 mm 5 m/S 745 mmHg 51%
    13:00 +13°C° 0,1 mm 5 m/S 745 mmHg 49%
    14:00 +14°C° 0,1 mm 5 m/S 745 mmHg 47%
    15:00 +13°C° 0,2 mm 5 m/S 745 mmHg 49%
    16:00 +13°C° 0,2 mm 5 m/S 745 mmHg 51%
    17:00 +13°C° 0,2 mm 5 m/S 745 mmHg 53%
    18:00 +11°C° 0 mm 4 m/S 745 mmHg 60%
    19:00 +9°C° 0 mm 3 m/S 746 mmHg 67%
    20:00 +8°C° 0 mm 2 m/S 746 mmHg 74%
    21:00 +7°C° 0 mm 2 m/S 747 mmHg 76%
    22:00 +6°C° 0 mm 2 m/S 747 mmHg 79%
    23:00 +6°C° 0 mm 2 m/S 747 mmHg 81%

    28 April, Samstag

    Zeit Temperatur Niederschläge Wind Luftdruck Luftfeuchtigkeit
    00:00 +5°C° 0 mm 2 m/S 747 mmHg 84%
    01:00 +5°C° 0 mm 2 m/S 748 mmHg 86%
    02:00 +4°C° 0 mm 2 m/S 748 mmHg 88%
    03:00 +4°C° 0 mm 2 m/S 748 mmHg 89%
    04:00 +4°C° 0 mm 2 m/S 748 mmHg 91%
    05:00 +3°C° 0 mm 2 m/S 748 mmHg 92%
    06:00 +5°C° 0 mm 2 m/S 749 mmHg 84%
    07:00 +7°C° 0 mm 2 m/S 749 mmHg 75%
    08:00 +9°C° 0 mm 3 m/S 749 mmHg 66%
    09:00 +10°C° 0 mm 3 m/S 749 mmHg 59%
    10:00 +12°C° 0 mm 3 m/S 749 mmHg 52%
    11:00 +13°C° 0 mm 3 m/S 750 mmHg 45%
    12:00 +14°C° 0 mm 3 m/S 749 mmHg 45%
    13:00 +14°C° 0 mm 3 m/S 749 mmHg 45%
    14:00 +16°C° 0 mm 3 m/S 749 mmHg 45%
    15:00 +16°C° 0 mm 3 m/S 749 mmHg 46%
    16:00 +16°C° 0 mm 3 m/S 748 mmHg 48%
    17:00 +16°C° 0 mm 3 m/S 748 mmHg 49%
    18:00 +14°C° 0,1 mm 3 m/S 748 mmHg 56%
    19:00 +13°C° 0,1 mm 3 m/S 748 mmHg 62%
    20:00 +11°C° 0,1 mm 3 m/S 748 mmHg 68%
    21:00 +11°C° 0,1 mm 3 m/S 747 mmHg 68%
    22:00 +12°C° 0,1 mm 4 m/S 747 mmHg 68%
    23:00 +12°C° 0,1 mm 4 m/S 747 mmHg 67%

    29 April, Sonntag

    Zeit Temperatur Niederschläge Wind Luftdruck Luftfeuchtigkeit
    00:00 +11°C° 0,2 mm 4 m/S 746 mmHg 71%
    01:00 +11°C° 0,2 mm 4 m/S 746 mmHg 74%
    02:00 +11°C° 0,2 mm 4 m/S 745 mmHg 77%
    03:00 +10°C° 0,1 mm 4 m/S 745 mmHg 81%
    04:00 +10°C° 0,1 mm 3 m/S 745 mmHg 85%
    05:00 +9°C° 0,1 mm 3 m/S 745 mmHg 89%
    06:00 +11°C° 0 mm 3 m/S 745 mmHg 86%
    07:00 +12°C° 0 mm 3 m/S 745 mmHg 83%
    08:00 +13°C° 0 mm 3 m/S 745 mmHg 80%
    09:00 +16°C° 0 mm 3 m/S 746 mmHg 71%
    10:00 +17°C° 0 mm 4 m/S 746 mmHg 62%
    11:00 +19°C° 0 mm 4 m/S 746 mmHg 54%
    12:00 +19°C° 0 mm 4 m/S 746 mmHg 51%
    13:00 +19°C° 0 mm 4 m/S 746 mmHg 48%
    14:00 +20°C° 0 mm 4 m/S 746 mmHg 45%
    15:00 +19°C° 0 mm 4 m/S 746 mmHg 46%
    16:00 +19°C° 0 mm 4 m/S 746 mmHg 47%
    17:00 +18°C° 0 mm 3 m/S 746 mmHg 49%
    18:00 +16°C° 0 mm 3 m/S 747 mmHg 56%
    19:00 +14°C° 0 mm 2 m/S 747 mmHg 62%
    20:00 +13°C° 0 mm 2 m/S 747 mmHg 69%
    21:00 +12°C° 0 mm 2 m/S 748 mmHg 71%
    22:00 +10°C° 0 mm 2 m/S 748 mmHg 74%
    23:00 +10°C° 0 mm 1 m/S 748 mmHg 76%
    Mehr zeigen